Location: ???????
(55.4362°N, 38.1183°E)
Time: 14:38:44
(UTC+00:00)

FALCON 9 DEB - Pass Details

Date: 28 October 2021
Orbit: 344 x 356 km, 53.0° (Epoch: 29 November)

Event Time Altitude Azimuth Distance (km) Brightness Sun altitude
Rises 15:34:37 0° 206° (SSW) 2,170 7.1 -14.2°
Reaches altitude 10° 15:37:13 10° 181° (S) 1,337 5.6 -14.6°
Enters shadow 15:38:40 14° 152° (SSE) 1,119 4.9 -14.8°
